Back to catalog

COSMOS 1275 DEB

AlivePO
NORAD 42124·DEBRIS·🇷🇺 Russia

Launched Jun 4, 1981 from Plesetsk Cosmodrome

Loading…

Next Passes (next 24 hours)

TLE

FreshSource: Space-Track

Epoch: Sep 14, 2026, 01:15 UTC

1 42124U 81053QL  26257.05210962  .00000524  00000-0  56664-3 0  9998
2 42124  83.0048 266.5909 0123440  21.0629  36.3302 13.68149051638113

Track COSMOS 1275 DEB in real time with AllMySat

Download on the App Store